Pagrindinis puslapis
METAR-TAF:

METAR-TAF

Oro uostai :

Brevig Mission, Aliaska, Jungtinės Amerikos Valstijos

platuma: 65-19-53N, ilguma: 166-27-57W, Aukštis: 11 m

Dabartinis oras

Ataskaita buvo paskelbta 53 minutes, ne 01:56 UTC
Vėjas 10 kt iš Rytų
Temperatūra -24°C
Drėgmė 76%
Slėgis 1020 hPa
Matomumas: 16.1 km
Giedras dangus

METAR: PFKT 290156Z AUTO 09010KT 10SM CLR M24/M27 A3011 RMK AO2 SLP196 T12441272 FZRANO

Laikas: 17:49 (02:49 UTC)


TAF: trūkstamas

Orai ataskaitas ir orų prognozės (METAR, TAF).

turimą stotys yra geltonos ir raudonos taškus žemėlapyje.

Perkelti pele per norėdami pamatyti stoties vardą.

Tada spustelėkite, norėdami matyti oro stebėjimo ir prognozės.

Norėdami pakeisti žemėlapį: spustelėkite ant žalios mygtukų su juodo kryžiaus žemyn,; žalią mygtuką su brūkšneliu, jei norite nutolinti; arba žalių rodyklių gretimoms žemėlapius.


METAR-TAF: